Home   Weather   Tel Aviv   Past weeks

Flag for Israel Past Weather in Tel Aviv, Israel — Yesterday and Last 2 Weeks

Now
48 °F

Clear.


Feels Like: 46 °F
Forecast: 51 / 65 °F
Wind: 5 mph from Southeast

Location: Ben Gurion International Airport

Current Time: Jan 18, 2017 at 6:42:15 am

Latest Report: Jan 18, 2017 at 5:50 am


Visibility: 10 mi

Pressure: 30.01 "Hg

Humidity: 76%

Dew Point: 41 °F

Location of Tel AvivLocation

Past Weather in Tel Aviv — Graph

°F

Tel Aviv Temperature Yesterday

Maximum temperature yesterday: 70 °F (at 2:20 pm)
Minimum temperature yesterday: 48 °F (at 6:20 am)
Average temperature yesterday: 57 °F

High & Low Weather Summary for the Past Weeks

 TemperatureHumidityPressure
High72 °F (Jan 6, 1:20 pm)100% (Jan 14, 11:20 pm)30.30 "Hg (Jan 14, 11:20 pm)
Low41 °F (Jan 11, 5:50 am)23% (Jan 6, 1:50 pm)29.86 "Hg (Jan 14, 11:20 pm)
Average55 °F66%30.09 "Hg
* Reported Jan 3 5:20 am — Jan 18 5:20 am, Tel Aviv, Weather by CustomWeather, © 2017

Note: Actual official high and low records may vary slightly from our data, if they occured in-between our weather recording intervals... More about our weather records

Advertising

Tel Aviv Weather History for the Previous 24 Hours

Scroll right to see more
 ConditionsComfort  
Time TempWeatherWind HumidityBarometerVisibility
5:20 am
Wed, Jan 18
48 °FClear.1 mph76%29.98 "Hg10 mi
4:50 am50 °FClear.2 mph71%29.98 "Hg10 mi
4:20 am52 °FClear.3 mph67%29.98 "Hg10 mi
3:50 am52 °FClear.3 mph67%29.98 "Hg10 mi
3:20 am52 °FClear.2 mph72%29.98 "Hg10 mi
2:50 am52 °FClear.2 mph72%30.01 "Hg10 mi
2:20 am52 °FClear.5 mph72%30.01 "Hg10 mi
1:50 am52 °FClear.6 mph72%30.01 "Hg10 mi
1:20 am52 °FClear.6 mph77%30.01 "Hg10 mi
12:50 am50 °FClear.1 mph88%30.01 "Hg10 mi
12:20 am50 °FClear.2 mph88%30.01 "Hg10 mi
11:50 pm
Tue, Jan 17
50 °FClear.2 mph88%29.98 "Hg10 mi
11:20 pm52 °FClear.2 mph88%29.98 "Hg10 mi
10:50 pm52 °FClear.1 mph88%29.98 "Hg10 mi
10:20 pm52 °FClear.2 mph88%29.98 "Hg10 mi
9:50 pm55 °FClear.2 mph77%29.98 "Hg10 mi
9:20 pm55 °FClear.5 mph82%29.98 "Hg10 mi
8:50 pm55 °FClear.3 mph82%29.98 "Hg10 mi
8:20 pm57 °FClear.3 mph77%30.01 "Hg10 mi
7:50 pm57 °FClear.1 mph77%29.98 "Hg10 mi
7:20 pm59 °FClear.2 mph68%30.01 "Hg10 mi
6:50 pm59 °FClear.1 mph68%30.01 "Hg10 mi
6:20 pm61 °FClear.3 mph63%30.01 "Hg10 mi
5:50 pm63 °FClear.3 mph56%29.98 "Hg10 mi
5:20 pm63 °FClear.3 mph56%29.98 "Hg10 mi
4:50 pm63 °FSunny.6 mph56%29.98 "Hg10 mi
4:20 pm66 °FSunny.7 mph46%29.98 "Hg10 mi
3:50 pm66 °FSunny.8 mph49%29.98 "Hg10 mi
3:20 pm68 °FSunny.8 mph49%29.98 "Hg10 mi
2:50 pm70 °FSunny.7 mph46%29.98 "Hg10 mi
2:20 pm70 °FSunny.6 mph43%29.98 "Hg10 mi
1:50 pm68 °FSunny.7 mph49%29.98 "Hg10 mi
1:20 pm68 °FSunny.9 mph49%29.98 "Hg10 mi
12:50 pm68 °FSunny.9 mph49%29.98 "Hg10 mi
12:20 pm68 °FSunny.8 mph46%29.98 "Hg10 mi
11:50 am68 °FSunny.5 mph40%30.01 "Hg10 mi
11:20 am68 °FSunny.3 mph40%30.01 "Hg10 mi
10:50 am66 °FSunny.5 mph49%30.04 "Hg10 mi
10:20 am63 °FSunny.3 mph52%30.04 "Hg10 mi
9:50 am61 °FSunny.3 mph63%30.04 "Hg10 mi
9:20 am57 °FSunny.1 mph72%30.04 "Hg10 mi
8:50 am55 °FSunny.1 mph72%30.04 "Hg10 mi
8:20 am54 °FSunny.1 mph72%30.04 "Hg10 mi
7:50 am50 °FSunny.1 mph76%30.04 "Hg10 mi
7:20 am50 °FSunny.2 mph76%30.04 "Hg10 mi
6:50 am48 °FSunny.1 mph82%30.04 "Hg10 mi
6:20 am48 °FClear.1 mph82%30.01 "Hg10 mi
Weather by CustomWeather, © 2017

See weather overviewHow to use our weather pages